Content
SEND FEEDBACK

Daily
Averages
Monthly
Summary
Mexico

PLAYA DEL CARMEN, QUINTANA ROO


Home > North America > Mexico > Quintana Roo
Elevation: 30 feet     Latitude: 20 38N     Longitude: 087 04W

WEATHER
 
SELECT A DAY
Number of Records: 196,421;   Date Range: 2/21/06 - 7/26/14
 
SHARE

PRINT THIS DATA

[ ← Previous Day ]
WEATHER ALMANAC - OCTOBER 17, 2013
[ Next Day → ]
[ °C ]   °F
Weather ElementAverageHighLow
Temperature78.1 °F89.6 °F (3:35 pm)68 °F (4:15 am)
Dewpoint40.3 °F71.6 °F (11:15 pm) (7:00 pm)
Humidity56.8 %89 % (11:15 pm)33 % (3:35 pm)
Barometer29.97 in30.02 in (9:35 am)29.93 in (3:55 pm)
Wind Speed1.6 mph5.8 mph (4:15 pm)
Weather ElementAverage
Visibility9.4 mi
Wind DirectionENE (78.6 °)

Weather ElementTotal
Precipitation---
Cooling Degree Days13.8 (Base 65)
Growing Degree Days28.8 (Base 50)
Averaged from 71 records on October 17, 2013
WEATHER CONDITIONS BREAKOUT
WIND DIRECTION BREAKOUT
WEATHER BY HOUR - OCTOBER 17, 2013
[ °C ]   °F
Local TimeTemperatureDewpointHumidityBarometerVisibilityWind DirectionWind SpeedGust SpeedPrecipitationEventsConditions
12:35 AM69.8 °F0.0 °F29.99 in10.0 miCalmClear
12:55 AM71.6 °F0.0 °F29.98 in10.0 miNNE (20°)3.5 mphClear
1:15 AM69.8 °F0.0 °F29.98 in10.0 miNNE (30°)3.5 mphClear
1:35 AM69.8 °F0.0 °F29.97 in10.0 miCalmClear
1:55 AM69.8 °F0.0 °F29.97 in10.0 miCalmClear
2:15 AM69.8 °F0.0 °F29.96 in10.0 miCalmClear
2:35 AM69.8 °F0.0 °F29.96 in7.0 miCalmClear
2:55 AM69.8 °F0.0 °F29.96 in10.0 miCalmClear
3:15 AM69.8 °F0.0 °F29.96 in10.0 miCalmClear
3:35 AM69.8 °F0.0 °F29.96 in10.0 miCalmClear
3:55 AM69.8 °F0.0 °F29.95 in7.0 miCalmClear
4:15 AM68.0 °F0.0 °F29.95 in7.0 miCalmClear
4:35 AM68.0 °F0.0 °F29.95 in7.0 miEast (90°)3.5 mphClear
4:55 AM68.0 °F0.0 °F29.95 in10.0 miEast (100°)3.5 mphClear
5:15 AM69.8 °F0.0 °F29.95 in10.0 miESE (110°)3.5 mphClear
5:35 AM69.8 °F0.0 °F29.96 in10.0 miESE (110°)3.5 mphClear
5:55 AM69.8 °F0.0 °F29.96 in10.0 miCalmClear
6:15 AM69.8 °F0.0 °F29.96 in5.0 miESE (110°)3.5 mphHaze
6:35 AM69.8 °F0.0 °F29.97 in7.0 miCalmClear
6:55 AM69.8 °F0.0 °F29.98 in7.0 miCalmClear
7:15 AM69.8 °F0.0 °F29.98 in7.0 miCalmClear
7:35 AM68.0 °F0.0 °F29.99 in2.5 miCalmClear
7:55 AM69.8 °F0.0 °F29.99 in4.0 miCalmHaze
8:15 AM71.6 °F0.0 °F29.99 in7.0 miCalmClear
8:35 AM73.4 °F0.0 °F30.00 in7.0 miCalmClear
8:55 AM75.2 °F0.0 °F30.01 in10.0 miCalmClear
9:15 AM78.8 °F0.0 °F30.01 in10.0 miCalmClear
9:35 AM80.6 °F69.8 °F70 %30.02 in10.0 miSouth (190°)4.6 mphClear
9:55 AM80.6 °F68.0 °F65 %30.02 in10.0 miSouth (190°)3.5 mphClear
10:15 AM82.4 °F68.0 °F62 %30.02 in10.0 miSouth (190°)3.5 mphClear
10:35 AM82.4 °F68.0 °F62 %30.02 in10.0 miSW (220°)4.6 mphClear
10:55 AM84.2 °F66.2 °F55 %30.02 in10.0 miSouth (190°)3.5 mphClear
11:15 AM84.2 °F66.2 °F55 %30.02 in10.0 miWSW (250°)4.6 mphClear
11:35 AM84.2 °F64.4 °F51 %30.02 in10.0 miCalmClear
11:55 AM86.0 °F64.4 °F48 %30.01 in10.0 miSSW (210°)3.5 mphClear
12:15 PM86.0 °F64.4 °F48 %30.01 in10.0 miCalmClear
12:35 PM86.0 °F64.4 °F48 %30.00 in10.0 miSW (220°)3.5 mphMostly Cloudy
12:55 PM84.2 °F64.4 °F51 %29.99 in10.0 miSSW (200°)4.6 mphMostly Cloudy
1:15 PM86.0 °F62.6 °F45 %29.99 in10.0 miCalmMostly Cloudy
1:35 PM86.0 °F62.6 °F45 %29.98 in10.0 miCalmMostly Cloudy
1:55 PM86.0 °F62.6 °F45 %29.96 in10.0 miCalmMostly Cloudy
2:15 PM87.8 °F62.6 °F43 %29.96 in10.0 miSouth (190°)3.5 mphScattered Clouds
2:35 PM86.0 °F62.6 °F45 %29.95 in10.0 miCalmScattered Clouds
2:55 PM87.8 °F60.8 °F40 %29.94 in10.0 miSW (230°)3.5 mphClear
3:15 PM87.8 °F60.8 °F40 %29.94 in10.0 miCalmScattered Clouds
3:35 PM89.6 °F57.2 °F33 %29.94 in10.0 miCalmMostly Cloudy
3:55 PM89.6 °F60.8 °F38 %29.93 in10.0 miCalmOvercast
4:15 PM89.6 °F60.8 °F38 %29.93 in10.0 miNorth (10°)5.8 mphMostly Cloudy
4:35 PM87.8 °F60.8 °F40 %29.93 in10.0 miNorth (360°)4.6 mphOvercast
4:55 PM86.0 °F60.8 °F43 %29.93 in10.0 miCalmOvercast
5:15 PM86.0 °F60.8 °F43 %29.93 in10.0 miCalmOvercast
5:35 PM86.0 °F60.8 °F43 %29.93 in10.0 miCalmOvercast
5:55 PM86.0 °F60.8 °F43 %29.93 in10.0 miWNW (290°)3.5 mphScattered Clouds
6:15 PM86.0 °F60.8 °F43 %29.93 in10.0 miCalmScattered Clouds
6:35 PM86.0 °F62.6 °F45 %29.93 in10.0 miCalmClear
6:55 PM82.4 °F66.2 °F58 %29.94 in10.0 miNW (310°)3.5 mphClear
7:15 PM82.4 °F68.0 °F62 %29.94 in10.0 miNW (320°)3.5 mphClear
7:35 PM80.6 °F68.0 °F65 %29.94 in10.0 miNNW (330°)3.5 mphClear
7:55 PM80.6 °F68.0 °F65 %29.95 in10.0 miNNW (340°)3.5 mphScattered Clouds
8:15 PM78.8 °F68.0 °F69 %29.95 in10.0 miCalmClear
8:35 PM78.8 °F68.0 °F69 %29.95 in10.0 miNNW (340°)3.5 mphClear
8:55 PM78.8 °F68.0 °F69 %29.96 in10.0 miCalmClear
9:15 PM77.0 °F68.0 °F74 %29.96 in10.0 miCalmClear
9:35 PM77.0 °F68.0 °F74 %29.96 in10.0 miCalmClear
9:55 PM77.0 °F68.0 °F74 %29.97 in10.0 miCalmClear
10:15 PM77.0 °F68.0 °F74 %29.97 in10.0 miNorth (350°)3.5 mphScattered Clouds
10:35 PM75.2 °F69.8 °F83 %29.97 in10.0 miCalmClear
10:55 PM75.2 °F69.8 °F83 %29.98 in10.0 miCalmMostly Cloudy
11:15 PM75.2 °F71.6 °F89 %29.98 in10.0 miCalmMostly Cloudy
11:35 PM75.2 °F69.8 °F83 %29.98 in10.0 miNE (40°)4.6 mphScattered Clouds
11:55 PM73.4 °F68.0 °F83 %29.98 in10.0 miNE (40°)3.5 mphClear
Hourly data recorded from KPCM, located miles away from Playa del Carmen, Quintana Roo







STORIES FROM OUR PARTNERS